TITAN 3C TRANSTAGE DEB, 29011

Orbit data source: Space-Track

TITAN 3C TRANSTAGE DEB, 29011 is space debris in HEO originally from a launch on Tue, 21 Dec 1965 UTC launched from the Air Force Eastern Test Range (AFETR). Debris objects in space refer to the collection of defunct objects orbiting the Earth. Examples of debris include non-operational satellites, rocket bodies, and fragments generated from explosions, collisions, or faulty payload assembly.

Loading next visibility...
Identifier
29011, 1965-108CT
Orbit
HEO
Country
Flag of USUS
Related business
Manufacturer
Unknown
Mission
Spacecraft
Bus & Motor
Unknown
Mass
Unknown
Launch date (UTC)
1965-12-21 (61 years ago)
Launch vehicle
Unknown
Launch site
Air Force Eastern Test Range (AFETR)
Object type
Payload
Rocket body
Debris
Shape & HBR
Unknown shape, 0.1 m
Radar Cross Section
Medium (>0.1 m² and <1 m²)

Expand to show TLE details & history
Last TLE update: 5 months ago

TLE from 5 months ago
0 TITAN 3C TRANSTAGE DEB
1 29011U 65108CT  26006.09611288  .00002399  00000-0  32494-2 0  9999
2 29011  26.4475   2.7849 6176495 241.2684  44.1462  3.66849841 31844
Epoch: 2026-01-06T02:18Z
TLE epoch observation values (Epoch: 2026-01-06T02:18:24.152Z)
Latitude
-0.00011°
Longitude
-137.502°
Altitude
9,236.489 km
Speed
5.349 km/s
True Right ascension
00h 11m 07s
True Declination
0° 00' 00"
Sunlit
Object was in daylight at epoch
Visualization orbit readout
Latitude
Unknown
Longitude
Unknown
Altitude
Unknown
Speed
Unknown
Apparent Right ascension
Unknown
Apparent Declination
Unknown
Sunlit
N/A
Visualization observer readout
Local Sidereal Time
03:50:27
Azimuth
Unknown
Elevation
Unknown
Doppler factor
Unknown
Orbital elements
Apogee altitude
22,354.924 km
Perigee altitude
413.26 km
Semi-major axis
17,762.229 km
Eccentricity
0.61765
Inclination
26.4475°
RAAN
2.7849°
Arg. of periapsis
241.2684°
True anomaly
118.82148°
Mean anomaly
44.1462°
Eccentric anomaly
78.86922°
Mean motion
0.91685 °/min
Orbital period
392.65 mins
BSTAR
0.0032494
Loading maneuver chart data...
Computing Atmospheric mass density...

Documentation

Showing up to 5 results
|